WXM80 ListenWXM80 Stop

You find our weather info also at:

UK Metoffice

WeatherCloud

Weather Underground

Northeastern Weather Network

AWEKAS

Citizen Weather Observer Program (CWOP)

HAMweather, WeatherForYou, PWS Weather


Weather Underground History page Text

Daily Summary for November 18, 2017 Units:  English    Metric   Both
« Previous Day
Next Day »
Daily Weekly Monthly Yearly Custom
  High: Low: Average:
Temperature: 56.8 °F 29.3 °F 43 °F
Dew Point: 55.3 °F 25.1 °F 38.1 °F
Humidity: 97 % 60 % 83 %
Wind Speed: 5.9 mph 0.0 mph 1.2 mph
Wind Gust: 16.1 mph - -
Wind:- - SW
Pressure: 30.09 in 29.45 in -
Precipitation: 0.05 in    
Historical Graphs
 
 
Tabular Data for November 18, 2017
Time Temperature Dew Point Pressure Wind Wind Speed Wind Gust Humidity Rainfall Rate (Hourly)
00:04 38.9 °F 26.2 °F 30.08 in WNW 1.6 mph 3.5 mph 60 % 0.00 in
00:07 38.9 °F 26.6 °F 30.08 in NW 0.2 mph 2.3 mph 61 % 0.00 in
00:12 38.9 °F 26.6 °F 30.09 in Calm   1.2 mph 61 % 0.00 in
00:17 38.8 °F 27.3 °F 30.09 in Calm   1.0 mph 63 % 0.00 in
00:22 38.7 °F 27.6 °F 30.09 in West 1.5 mph 2.3 mph 64 % 0.00 in
00:27 38.4 °F 27.3 °F 30.09 in West 0.9 mph 2.3 mph 64 % 0.00 in
00:32 38.1 °F 27.0 °F 30.09 in West 1.4 mph 2.3 mph 64 % 0.00 in
00:37 37.7 °F 27.0 °F 30.09 in West 1.5 mph 2.3 mph 65 % 0.00 in
00:42 37.2 °F 26.5 °F 30.09 in Calm   1.2 mph 65 % 0.00 in
00:47 36.8 °F 26.5 °F 30.09 in West 0.1 mph 1.2 mph 66 % 0.00 in
00:52 36.5 °F 26.6 °F 30.08 in West 0.2 mph 1.2 mph 67 % 0.00 in
00:57 36.1 °F 26.6 °F 30.08 in Calm     68 % 0.00 in
01:02 35.7 °F 26.5 °F 30.08 in Calm     69 % 0.00 in
01:07 35.4 °F 26.6 °F 30.08 in Calm     70 % 0.00 in
01:12 35.1 °F 26.3 °F 30.08 in Calm     70 % 0.00 in
01:17 34.8 °F 26.4 °F 30.07 in Calm     71 % 0.00 in
01:22 34.4 °F 26.3 °F 30.07 in Calm     72 % 0.00 in
01:27 34.2 °F 26.1 °F 30.07 in Calm     72 % 0.00 in
01:32 33.9 °F 26.2 °F 30.07 in Calm     73 % 0.00 in
01:42 33.4 °F 26.0 °F 30.07 in Calm     74 % 0.00 in
01:47 33.1 °F 26.0 °F 30.07 in Calm     75 % 0.00 in
01:52 32.9 °F 25.8 °F 30.07 in Calm     75 % 0.00 in
01:57 32.7 °F 26.0 °F 30.07 in Calm     76 % 0.00 in
02:02 32.5 °F 25.8 °F 30.07 in Calm     76 % 0.00 in
02:07 32.4 °F 25.7 °F 30.07 in Calm   2.3 mph 76 % 0.00 in
02:12 32.2 °F 25.5 °F 30.07 in West 0.1 mph   76 % 0.00 in
02:17 32.1 °F 25.7 °F 30.07 in West 0.6 mph 1.2 mph 77 % 0.00 in
02:22 31.9 °F 25.5 °F 30.07 in Calm     77 % 0.00 in
02:27 31.8 °F 25.4 °F 30.07 in West 0.1 mph 1.2 mph 77 % 0.00 in
02:32 31.7 °F 25.6 °F 30.07 in West 0.9 mph 1.2 mph 78 % 0.00 in
02:37 31.5 °F 25.4 °F 30.07 in Calm     78 % 0.00 in
02:42 31.4 °F 25.3 °F 30.07 in West 0.5 mph 1.2 mph 78 % 0.00 in
02:47 31.3 °F 25.5 °F 30.07 in West 0.1 mph   79 % 0.00 in
02:53 31.2 °F 25.4 °F 30.07 in West 0.2 mph 1.2 mph 79 % 0.00 in
02:58 31.1 °F 25.3 °F 30.07 in West 0.2 mph   79 % 0.00 in
03:03 31.0 °F 25.2 °F 30.06 in West 0.9 mph 2.0 mph 79 % 0.00 in
03:08 30.9 °F 25.5 °F 30.05 in Calm     80 % 0.00 in
03:13 30.8 °F 25.4 °F 30.04 in Calm     80 % 0.00 in
03:18 30.7 °F 25.3 °F 30.04 in Calm     80 % 0.00 in
03:23 30.7 °F 25.3 °F 30.04 in Calm     80 % 0.00 in
03:28 30.5 °F 25.4 °F 30.04 in West 1.4 mph 2.3 mph 81 % 0.00 in
03:33 30.5 °F 25.4 °F 30.04 in West 0.4 mph 2.3 mph 81 % 0.00 in
03:38 30.3 °F 25.2 °F 30.05 in West 0.4 mph 2.3 mph 81 % 0.00 in
03:43 30.2 °F 25.4 °F 30.05 in Calm     82 % 0.00 in
03:48 30.1 °F 25.3 °F 30.05 in West 1.1 mph 2.3 mph 82 % 0.00 in
03:53 30.0 °F 25.2 °F 30.04 in Calm   1.2 mph 82 % 0.00 in
03:58 30.0 °F 25.2 °F 30.04 in West 0.4 mph 2.0 mph 82 % 0.00 in
04:03 29.9 °F 25.4 °F 30.04 in Calm     83 % 0.00 in
04:08 29.9 °F 25.4 °F 30.03 in Calm     83 % 0.00 in
04:13 29.9 °F 25.4 °F 30.03 in Calm   1.0 mph 83 % 0.00 in
04:18 29.9 °F 25.4 °F 30.03 in Calm     83 % 0.00 in
04:23 29.8 °F 25.3 °F 30.03 in Calm     83 % 0.00 in
04:28 29.9 °F 25.4 °F 30.03 in Calm     83 % 0.00 in
04:33 29.8 °F 25.3 °F 30.03 in Calm     83 % 0.00 in
04:38 29.8 °F 25.3 °F 30.03 in West 0.9 mph 2.3 mph 83 % 0.00 in
04:43 29.8 °F 25.6 °F 30.03 in West 1.4 mph 2.3 mph 84 % 0.00 in
04:49 29.8 °F 25.6 °F 30.03 in West 0.5 mph 1.2 mph 84 % 0.00 in
04:54 29.7 °F 25.5 °F 30.03 in Calm   1.2 mph 84 % 0.00 in
04:59 29.7 °F 25.5 °F 30.04 in Calm   1.2 mph 84 % 0.00 in
05:04 29.7 °F 25.5 °F 30.04 in West 1.0 mph 2.3 mph 84 % 0.00 in
05:09 29.7 °F 25.7 °F 30.04 in West 0.8 mph 2.3 mph 85 % 0.00 in
05:19 29.6 °F 25.6 °F 30.04 in Calm     85 % 0.00 in
05:24 29.6 °F 25.6 °F 30.04 in West 0.6 mph 1.2 mph 85 % 0.00 in
05:29 29.6 °F 25.4 °F 30.04 in Calm   1.0 mph 84 % 0.00 in
05:34 29.6 °F 25.6 °F 30.03 in Calm     85 % 0.00 in
05:39 29.5 °F 25.3 °F 30.03 in Calm     84 % 0.00 in
05:42 29.5 °F 25.3 °F 30.03 in Calm     84 % 0.00 in
05:47 29.5 °F 25.3 °F 30.03 in Calm     84 % 0.00 in
05:52 29.5 °F 25.3 °F 30.03 in Calm     84 % 0.00 in
05:57 29.4 °F 25.4 °F 30.03 in Calm   1.2 mph 85 % 0.00 in
06:02 29.4 °F 25.2 °F 30.03 in Calm   1.2 mph 84 % 0.00 in
06:07 29.4 °F 25.4 °F 30.03 in Calm   1.2 mph 85 % 0.00 in
06:12 29.3 °F 25.4 °F 30.03 in Calm     85 % 0.00 in
06:17 29.3 °F 25.1 °F 30.03 in Calm     84 % 0.00 in
06:22 29.3 °F 25.4 °F 30.03 in Calm     85 % 0.00 in
06:27 29.3 °F 25.4 °F 30.03 in Calm     85 % 0.00 in
06:32 29.3 °F 25.4 °F 30.03 in Calm     85 % 0.00 in
06:37 29.3 °F 25.4 °F 30.03 in Calm     85 % 0.00 in
06:42 29.3 °F 25.4 °F 30.02 in Calm     85 % 0.00 in
06:47 29.3 °F 25.4 °F 30.02 in Calm     85 % 0.00 in
06:52 29.3 °F 25.4 °F 30.02 in Calm     85 % 0.00 in
06:57 29.3 °F 25.6 °F 30.02 in Calm     86 % 0.00 in
07:02 29.4 °F 25.7 °F 30.02 in Calm     86 % 0.00 in
07:03 29.4 °F 25.7 °F 30.02 in Calm     86 % 0.00 in
07:08 29.4 °F 25.7 °F 30.01 in Calm     86 % 0.00 in
07:13 29.5 °F 26.1 °F 30.01 in Calm     87 % 0.00 in
07:18 29.6 °F 26.2 °F 30.01 in Calm     87 % 0.00 in
07:23 29.6 °F 26.2 °F 30.01 in Calm   1.2 mph 87 % 0.00 in
07:28 29.7 °F 26.3 °F 30.02 in Calm     87 % 0.00 in
07:33 29.9 °F 26.5 °F 30.01 in Calm     87 % 0.00 in
07:38 30.0 °F 26.6 °F 30.02 in Calm     87 % 0.00 in
07:43 30.1 °F 26.7 °F 30.02 in Calm     87 % 0.00 in
07:48 30.3 °F 26.9 °F 30.01 in Calm     87 % 0.00 in
07:53 30.5 °F 27.4 °F 30.01 in Calm     88 % 0.00 in
07:58 30.6 °F 27.5 °F 30.00 in Calm     88 % 0.00 in
08:03 30.8 °F 27.7 °F 30.00 in Calm     88 % 0.00 in
08:08 31.0 °F 27.9 °F 30.00 in Calm     88 % 0.00 in
08:13 31.2 °F 28.1 °F 30.00 in Calm     88 % 0.00 in
08:18 31.5 °F 28.4 °F 29.99 in Calm     88 % 0.00 in
08:23 31.7 °F 28.6 °F 29.98 in Calm     88 % 0.00 in
08:28 32.0 °F 29.1 °F 29.98 in Calm     89 % 0.00 in
08:33 32.2 °F 29.0 °F 29.98 in Calm     88 % 0.00 in
08:34 32.3 °F 29.1 °F 29.98 in Calm     88 % 0.00 in
08:39 32.5 °F 29.3 °F 29.98 in Calm     88 % 0.00 in
08:44 32.8 °F 29.6 °F 29.97 in Calm     88 % 0.00 in
08:49 33.2 °F 30.0 °F 29.97 in Calm     88 % 0.00 in
08:54 33.6 °F 30.4 °F 29.97 in Calm     88 % 0.00 in
08:59 34.1 °F 30.6 °F 29.97 in Calm     87 % 0.00 in
09:04 34.6 °F 30.8 °F 29.97 in Calm     86 % 0.00 in
09:09 35.1 °F 31.3 °F 29.97 in Calm   1.2 mph 86 % 0.00 in
09:14 35.6 °F 31.5 °F 29.97 in West 0.9 mph 2.0 mph 85 % 0.00 in
09:19 36.3 °F 32.2 °F 29.98 in West 1.5 mph 3.0 mph 85 % 0.00 in
09:24 37.0 °F 32.6 °F 29.98 in SW 1.1 mph 3.5 mph 84 % 0.00 in
09:29 37.5 °F 32.8 °F 29.97 in WSW 1.6 mph 3.5 mph 83 % 0.00 in
09:34 38.1 °F 33.1 °F 29.97 in Calm   1.0 mph 82 % 0.00 in
09:39 38.6 °F 33.6 °F 29.97 in Calm   1.2 mph 82 % 0.00 in
09:45 39.2 °F 33.9 °F 29.96 in Calm     81 % 0.00 in
09:50 39.7 °F 34.0 °F 29.97 in Calm     80 % 0.00 in
09:55 40.1 °F 34.4 °F 29.96 in Calm     80 % 0.00 in
10:00 40.5 °F 34.5 °F 29.96 in Calm     79 % 0.00 in
10:05 40.8 °F 34.8 °F 29.96 in Calm   1.0 mph 79 % 0.00 in
10:10 41.2 °F 34.9 °F 29.95 in Calm     78 % 0.00 in
10:15 41.4 °F 35.1 °F 29.95 in Calm   1.2 mph 78 % 0.00 in
10:20 41.7 °F 35.0 °F 29.95 in WSW 0.5 mph 2.3 mph 77 % 0.00 in
10:22 41.8 °F 35.1 °F 29.95 in Calm   1.2 mph 77 % 0.00 in
10:27 42.1 °F 35.1 °F 29.95 in Calm   1.2 mph 76 % 0.00 in
10:32 42.3 °F 35.6 °F 29.94 in Calm     77 % 0.00 in
10:37 42.6 °F 35.6 °F 29.93 in Calm     76 % 0.00 in
10:42 42.9 °F 35.9 °F 29.92 in Calm     76 % 0.00 in
10:47 43.1 °F 35.7 °F 29.92 in Calm     75 % 0.00 in
10:52 43.3 °F 35.9 °F 29.92 in Calm   1.2 mph 75 % 0.00 in
10:57 43.5 °F 36.4 °F 29.91 in Calm     76 % 0.00 in
11:02 43.7 °F 37.0 °F 29.91 in Calm     77 % 0.00 in
11:07 44.1 °F 36.7 °F 29.90 in Calm     75 % 0.00 in
11:12 44.5 °F 37.4 °F 29.90 in WSW 1.7 mph 3.5 mph 76 % 0.00 in
11:18 45.0 °F 37.6 °F 29.89 in SW 1.4 mph 3.5 mph 75 % 0.00 in
11:23 45.6 °F 37.4 °F 29.89 in SW 1.4 mph 4.6 mph 73 % 0.00 in
11:28 46.1 °F 38.3 °F 29.89 in West 1.8 mph 2.3 mph 74 % 0.00 in
11:33 46.7 °F 38.5 °F 29.88 in SW 0.5 mph 3.5 mph 73 % 0.00 in
11:38 47.2 °F 39.0 °F 29.87 in SW 0.4 mph 3.0 mph 73 % 0.00 in
11:43 47.6 °F 39.0 °F 29.87 in WSW 1.9 mph 3.5 mph 72 % 0.00 in
11:48 47.9 °F 39.3 °F 29.87 in SW 1.0 mph 2.3 mph 72 % 0.00 in
11:53 48.2 °F 39.6 °F 29.86 in Calm     72 % 0.00 in
11:58 48.5 °F 39.9 °F 29.86 in WSW 0.5 mph 2.3 mph 72 % 0.00 in
12:03 48.7 °F 40.1 °F 29.86 in SW 2.2 mph 5.0 mph 72 % 0.00 in
12:08 49.0 °F 40.0 °F 29.85 in SSW 0.9 mph 4.0 mph 71 % 0.00 in
12:13 49.2 °F 39.8 °F 29.85 in SSW 3.5 mph 6.9 mph 70 % 0.00 in
12:18 49.3 °F 40.3 °F 29.84 in South 1.6 mph 3.5 mph 71 % 0.00 in
12:23 49.5 °F 40.8 °F 29.84 in SSE 0.1 mph 1.2 mph 72 % 0.00 in
12:28 49.7 °F 40.7 °F 29.84 in SSW 1.5 mph 4.0 mph 71 % 0.00 in
12:33 49.8 °F 40.8 °F 29.84 in WSW 1.1 mph 3.5 mph 71 % 0.00 in
12:38 50.0 °F 41.3 °F 29.83 in SSW 3.5 mph 6.9 mph 72 % 0.00 in
12:43 50.1 °F 41.4 °F 29.83 in SSE 0.3 mph 2.3 mph 72 % 0.00 in
12:48 50.3 °F 42.0 °F 29.82 in SW 3.0 mph 4.6 mph 73 % 0.00 in
12:53 50.5 °F 42.2 °F 29.81 in SW 1.6 mph 3.5 mph 73 % 0.00 in
12:58 50.6 °F 43.0 °F 29.81 in SSW 0.4 mph 3.5 mph 75 % 0.00 in
13:03 50.9 °F 42.9 °F 29.81 in SW 2.2 mph 3.5 mph 74 % 0.00 in
13:08 51.1 °F 43.1 °F 29.80 in SSW 3.3 mph 5.8 mph 74 % 0.00 in
13:13 51.3 °F 43.3 °F 29.80 in SSW 1.4 mph 3.5 mph 74 % 0.00 in
13:18 51.5 °F 43.8 °F 29.79 in SW 1.3 mph 4.0 mph 75 % 0.00 in
13:23 51.8 °F 44.5 °F 29.79 in SSE 0.9 mph 2.3 mph 76 % 0.00 in
13:28 52.1 °F 44.8 °F 29.78 in South 0.8 mph 3.5 mph 76 % 0.00 in
13:33 52.3 °F 44.6 °F 29.78 in SSW 3.7 mph 6.9 mph 75 % 0.00 in
13:38 52.5 °F 44.8 °F 29.78 in WSW 2.5 mph 8.1 mph 75 % 0.00 in
13:44 52.7 °F 45.0 °F 29.78 in SSW 0.7 mph 5.0 mph 75 % 0.00 in
13:49 52.9 °F 44.8 °F 29.77 in SSW 5.0 mph 11.5 mph 74 % 0.00 in
13:54 53.0 °F 44.9 °F 29.76 in SW 0.9 mph 3.5 mph 74 % 0.00 in
13:59 53.0 °F 44.6 °F 29.76 in SSW 3.8 mph 6.9 mph 73 % 0.00 in
14:04 53.1 °F 44.7 °F 29.75 in SSW 3.4 mph 10.4 mph 73 % 0.00 in
14:09 53.1 °F 44.7 °F 29.75 in South 4.8 mph 9.2 mph 73 % 0.00 in
14:14 53.1 °F 45.0 °F 29.75 in SSW 2.7 mph 5.8 mph 74 % 0.00 in
14:19 53.1 °F 45.0 °F 29.74 in SSW 1.6 mph 4.6 mph 74 % 0.00 in
14:24 53.1 °F 45.4 °F 29.74 in South 4.9 mph 9.2 mph 75 % 0.00 in
14:29 53.1 °F 45.4 °F 29.73 in South 5.7 mph 11.5 mph 75 % 0.00 in
14:34 53.1 °F 45.4 °F 29.73 in SSE 3.7 mph 8.1 mph 75 % 0.00 in
14:39 53.1 °F 45.4 °F 29.72 in SSW 2.1 mph 3.5 mph 75 % 0.00 in
14:44 53.0 °F 44.9 °F 29.72 in SSW 3.1 mph 4.6 mph 74 % 0.00 in
14:49 53.0 °F 44.9 °F 29.72 in South 5.0 mph 7.0 mph 74 % 0.00 in
14:54 53.0 °F 45.3 °F 29.71 in South 4.0 mph 8.1 mph 75 % 0.00 in
14:59 53.0 °F 45.3 °F 29.71 in SSE 3.9 mph 5.8 mph 75 % 0.00 in
15:04 53.0 °F 45.6 °F 29.71 in South 3.1 mph 5.8 mph 76 % 0.00 in
15:09 53.0 °F 45.3 °F 29.71 in SSW 2.1 mph 5.8 mph 75 % 0.00 in
15:14 52.9 °F 45.5 °F 29.71 in South 5.1 mph 9.2 mph 76 % 0.00 in
15:19 52.8 °F 45.4 °F 29.72 in SW 0.3 mph 3.5 mph 76 % 0.00 in
15:24 52.7 °F 45.3 °F 29.71 in South 2.1 mph 4.6 mph 76 % 0.00 in
15:29 52.7 °F 45.7 °F 29.71 in SSW 2.5 mph 4.6 mph 77 % 0.00 in
15:35 52.6 °F 45.9 °F 29.71 in SE 1.2 mph 4.6 mph 78 % 0.00 in
15:39 52.6 °F 45.9 °F 29.71 in SSW 2.3 mph 5.8 mph 78 % 0.00 in
15:44 52.4 °F 46.1 °F 29.71 in South 2.1 mph 5.0 mph 79 % 0.00 in
15:50 52.3 °F 46.0 °F 29.70 in SW 2.6 mph 5.8 mph 79 % 0.00 in
15:55 52.3 °F 46.0 °F 29.70 in South 0.3 mph 3.5 mph 79 % 0.00 in
16:00 52.2 °F 46.2 °F 29.70 in SSW 3.7 mph 4.6 mph 80 % 0.00 in
16:05 52.2 °F 46.2 °F 29.70 in West 0.7 mph 3.5 mph 80 % 0.00 in
16:10 52.1 °F 46.4 °F 29.70 in West 1.1 mph 2.0 mph 81 % 0.00 in
16:15 52.1 °F 46.4 °F 29.70 in South 0.4 mph 3.5 mph 81 % 0.00 in
16:20 52.1 °F 46.4 °F 29.69 in SSW 1.9 mph 4.6 mph 81 % 0.00 in
16:25 52.0 °F 46.7 °F 29.69 in SSW 4.3 mph 5.8 mph 82 % 0.00 in
16:30 52.1 °F 47.1 °F 29.69 in SSW 1.5 mph 3.5 mph 83 % 0.00 in
16:35 52.0 °F 47.0 °F 29.69 in SSW 2.6 mph 5.8 mph 83 % 0.00 in
16:40 52.1 °F 47.4 °F 29.69 in SW 0.6 mph 3.5 mph 84 % 0.00 in
16:45 52.0 °F 47.6 °F 29.69 in SSW 2.0 mph 4.6 mph 85 % 0.00 in
16:50 51.9 °F 47.5 °F 29.69 in SW 2.7 mph 9.2 mph 85 % 0.00 in
16:55 51.9 °F 47.8 °F 29.68 in SW 1.3 mph 3.5 mph 86 % 0.00 in
17:00 51.8 °F 47.7 °F 29.68 in SW 0.3 mph 2.0 mph 86 % 0.00 in
17:05 51.8 °F 48.1 °F 29.68 in SW 0.3 mph 2.0 mph 87 % 0.00 in
17:10 51.7 °F 47.6 °F 29.68 in SW 1.7 mph 3.5 mph 86 % 0.01 in
17:15 51.6 °F 47.9 °F 29.68 in Calm   1.2 mph 87 % 0.01 in
17:20 51.5 °F 47.8 °F 29.68 in SW 0.3 mph 1.0 mph 87 % 0.01 in
17:25 51.4 °F 47.7 °F 29.67 in SW 0.1 mph   87 % 0.01 in
17:31 51.3 °F 47.6 °F 29.67 in Calm   2.0 mph 87 % 0.00 in
17:36 51.3 °F 47.8 °F 29.67 in Calm   1.0 mph 88 % 0.00 in
17:41 51.2 °F 47.8 °F 29.67 in SW 0.1 mph 2.0 mph 88 % 0.01 in
17:46 51.1 °F 48.0 °F 29.67 in Calm   2.0 mph 89 % 0.00 in
17:51 51.0 °F 47.9 °F 29.67 in SW 0.5 mph 1.2 mph 89 % 0.01 in
17:56 51.0 °F 48.2 °F 29.67 in Calm   1.2 mph 90 % 0.01 in
18:01 50.9 °F 48.1 °F 29.67 in SW 0.4 mph 3.5 mph 90 % 0.01 in
18:06 50.9 °F 48.1 °F 29.66 in Calm     90 % 0.00 in
18:11 50.9 °F 48.1 °F 29.66 in SW 0.3 mph 1.2 mph 90 % 0.00 in
18:16 50.8 °F 48.3 °F 29.66 in Calm   1.2 mph 91 % 0.00 in
18:21 50.9 °F 48.4 °F 29.66 in SSW 0.6 mph 2.3 mph 91 % 0.01 in
18:26 50.9 °F 48.4 °F 29.66 in SW 0.4 mph 1.2 mph 91 % 0.01 in
18:31 50.9 °F 48.4 °F 29.66 in SW 0.2 mph 1.2 mph 91 % 0.02 in
18:36 50.9 °F 48.7 °F 29.66 in West 0.8 mph 2.3 mph 92 % 0.02 in
18:41 51.0 °F 48.8 °F 29.65 in West 0.3 mph 1.2 mph 92 % 0.02 in
18:46 51.0 °F 48.8 °F 29.65 in Calm   3.5 mph 92 % 0.02 in
18:52 51.1 °F 48.9 °F 29.65 in SW 1.3 mph 2.0 mph 92 % 0.03 in
18:57 51.2 °F 49.2 °F 29.64 in SSW 3.7 mph 5.8 mph 93 % 0.03 in
19:02 51.2 °F 49.2 °F 29.64 in WSW 0.4 mph 5.8 mph 93 % 0.03 in
19:07 51.2 °F 49.2 °F 29.63 in SW 4.2 mph 9.2 mph 93 % 0.03 in
19:12 51.2 °F 49.2 °F 29.64 in WSW 1.5 mph 9.2 mph 93 % 0.03 in
19:17 51.1 °F 49.1 °F 29.64 in SSW 5.9 mph 9.2 mph 93 % 0.02 in
19:22 51.1 °F 49.1 °F 29.64 in SSW 4.1 mph 8.1 mph 93 % 0.02 in
19:27 51.0 °F 48.8 °F 29.64 in SSW 3.2 mph 7.0 mph 92 % 0.01 in
19:32 50.9 °F 48.7 °F 29.63 in SSW 5.0 mph 10.4 mph 92 % 0.01 in
19:37 50.8 °F 48.6 °F 29.64 in SSW 5.9 mph 11.5 mph 92 % 0.01 in
19:42 50.6 °F 48.4 °F 29.63 in SSE 5.6 mph 9.2 mph 92 % 0.02 in
19:47 50.5 °F 48.3 °F 29.62 in South 2.2 mph 4.0 mph 92 % 0.02 in
19:52 50.4 °F 48.2 °F 29.62 in SW 1.2 mph 3.5 mph 92 % 0.01 in
19:57 50.4 °F 48.2 °F 29.63 in SW 2.3 mph 5.0 mph 92 % 0.01 in
20:02 50.3 °F 48.1 °F 29.62 in South 2.6 mph 8.1 mph 92 % 0.01 in
20:07 50.3 °F 48.1 °F 29.62 in SW 2.1 mph 3.5 mph 92 % 0.01 in
20:12 50.2 °F 48.0 °F 29.62 in SSW 2.5 mph 3.5 mph 92 % 0.01 in
20:17 50.2 °F 48.0 °F 29.61 in SSW 3.3 mph 3.3 mph 92 % 0.01 in
20:23 50.2 °F 48.0 °F 29.61 in SW 3.3 mph 5.8 mph 92 % 0.01 in
20:28 50.1 °F 48.2 °F 29.61 in South 1.5 mph 3.5 mph 93 % 0.01 in
20:33 50.1 °F 48.2 °F 29.61 in South 3.6 mph 3.6 mph 93 % 0.01 in
20:38 50.1 °F 48.2 °F 29.60 in SW 4.1 mph 6.9 mph 93 % 0.01 in
20:43 50.1 °F 48.2 °F 29.60 in SW 1.7 mph 3.5 mph 93 % 0.00 in
20:48 50.0 °F 48.1 °F 29.59 in SSW 3.1 mph 6.0 mph 93 % 0.00 in
20:53 50.0 °F 48.1 °F 29.58 in SSW 4.2 mph 10.4 mph 93 % 0.00 in
20:58 50.0 °F 48.1 °F 29.58 in SE 3.4 mph 4.6 mph 93 % 0.00 in
21:03 50.0 °F 48.1 °F 29.57 in WSW 2.6 mph 6.0 mph 93 % 0.00 in
21:08 50.0 °F 48.1 °F 29.57 in SSW 1.8 mph 4.6 mph 93 % 0.00 in
21:13 50.1 °F 48.2 °F 29.57 in SSW 1.0 mph 4.6 mph 93 % 0.00 in
21:18 50.1 °F 48.4 °F 29.56 in South 1.0 mph 3.5 mph 94 % 0.00 in
21:23 50.2 °F 48.5 °F 29.56 in SSW 1.2 mph 3.5 mph 94 % 0.00 in
21:28 50.4 °F 48.7 °F 29.55 in South 2.6 mph 3.5 mph 94 % 0.00 in
21:34 50.6 °F 49.2 °F 29.55 in South 0.8 mph 3.5 mph 95 % 0.00 in
21:39 50.8 °F 49.4 °F 29.55 in SSE 1.5 mph 4.6 mph 95 % 0.00 in
21:44 51.1 °F 49.7 °F 29.55 in South 1.3 mph 3.5 mph 95 % 0.00 in
21:49 51.4 °F 50.0 °F 29.55 in SW 1.1 mph 2.3 mph 95 % 0.00 in
21:54 51.6 °F 50.5 °F 29.54 in SSW 2.6 mph 4.6 mph 96 % 0.00 in
21:59 51.9 °F 50.8 °F 29.54 in SSE 0.7 mph 3.5 mph 96 % 0.00 in
22:04 52.2 °F 51.1 °F 29.54 in SSW 0.3 mph 3.5 mph 96 % 0.00 in
22:09 52.4 °F 51.3 °F 29.53 in SSW 1.2 mph 4.6 mph 96 % 0.00 in
22:14 52.7 °F 51.6 °F 29.53 in South 3.3 mph 7.0 mph 96 % 0.00 in
22:20 53.0 °F 52.2 °F 29.52 in SSE 1.0 mph 8.1 mph 97 % 0.00 in
22:25 53.2 °F 52.1 °F 29.52 in South 2.3 mph 5.8 mph 96 % 0.00 in
22:26 53.2 °F 52.1 °F 29.52 in SSW 2.0 mph 6.0 mph 96 % 0.00 in
22:27 53.3 °F 52.5 °F 29.52 in SW 3.4 mph 7.0 mph 97 % 0.00 in
22:32 53.5 °F 52.4 °F 29.51 in SSW 3.1 mph 6.9 mph 96 % 0.00 in
22:34 53.5 °F 52.4 °F 29.51 in SSW 1.4 mph 5.8 mph 96 % 0.00 in
22:39 53.8 °F 53.0 °F 29.50 in SSE 1.4 mph 3.5 mph 97 % 0.00 in
22:44 54.0 °F 53.2 °F 29.49 in South 3.2 mph 5.0 mph 97 % 0.00 in
22:49 54.2 °F 53.4 °F 29.49 in SSW 2.3 mph 7.0 mph 97 % 0.00 in
22:54 54.4 °F 53.6 °F 29.49 in SSW 3.4 mph 6.9 mph 97 % 0.00 in
22:59 54.7 °F 53.9 °F 29.48 in SW 4.3 mph 10.0 mph 97 % 0.00 in
23:04 54.9 °F 54.1 °F 29.48 in SW 1.8 mph 5.8 mph 97 % 0.00 in
23:09 55.1 °F 54.3 °F 29.48 in SW 3.6 mph 7.0 mph 97 % 0.00 in
23:14 55.4 °F 54.6 °F 29.47 in SSW 2.3 mph 5.8 mph 97 % 0.00 in
23:19 55.6 °F 54.8 °F 29.47 in South 5.4 mph 8.1 mph 97 % 0.00 in
23:25 55.8 °F 55.0 °F 29.46 in SW 4.0 mph 6.9 mph 97 % 0.00 in
23:30 55.9 °F 54.8 °F 29.46 in SW 5.4 mph 11.5 mph 96 % 0.00 in
23:35 56.2 °F 55.1 °F 29.46 in SSW 5.4 mph 16.1 mph 96 % 0.00 in
23:40 56.4 °F 55.3 °F 29.46 in WSW 3.6 mph 9.2 mph 96 % 0.00 in
23:50 56.6 °F 55.2 °F 29.46 in SW 5.9 mph 10.4 mph 95 % 0.00 in
23:55 56.8 °F 55.1 °F 29.45 in SSW 4.0 mph 8.1 mph 94 % 0.00 in
Crab Meadow Weather
Compliments of Weather Underground - 3 mb

Script developed by  Jim McMurry - jmcmurry@mwt.net Adapted for the template by  Wim van der Kuil - Leuven-Template.eu

Recycling: If every American home replaced just one light bulb with an ENERGY STAR qualified bulb, we would save enough energy to light more than 3 million homes for a year, more than $600 million in annual energy costs, and prevent greenhouse gases equivalent to the emissions of more than 800,000 cars.